Location: Lligwy
(53.3500°N, 4.2667°W)
Time: 07:57:00
(UTC+00:00)

Daily predictions for brighter satellites

Satellite Brightness Start Highest point End
(mag) Time Altitude Azimuth Time Altitude Azimuth Time Altitude Azimuth
CZ-4C R/B 2.3 17:08:57 10° SW 17:14:04 76° SE 17:20:19 10° NE
CZ-3B R/B 0.8 17:12:39 10° WNW 17:14:34 64° N 17:17:49 10° E
Meteor 2-5 Rocket 4.2 17:10:05 10° SSE 17:15:10 38° E 17:20:15 10° NNE
SL-16 R/B 4.5 17:14:04 10° N 17:18:40 22° NW 17:23:15 10° W
Cosmos 783 Rocket 4.5 17:14:05 10° NNW 17:19:20 76° ENE 17:24:35 10° SSE
CORIOLIS 4.1 17:16:58 10° SSE 17:22:20 69° ENE 17:27:41 10° NNW
Cosmos 2263 Rocket 2.6 17:17:00 10° S 17:22:22 45° ESE 17:27:44 10° NE
Cosmos 1455 3.8 17:21:33 10° NNE 17:23:44 15° ENE 17:25:54 10° E
Cosmos 968 Rocket 3.5 17:19:52 10° SSW 17:24:59 85° ESE 17:30:09 10° NNE
Envisat 3.7 17:20:37 10° S 17:25:38 60° WSW 17:30:42 10° NNW
Cosmos 2058 Rocket 4.0 17:21:59 10° N 17:25:50 27° ENE 17:29:42 10° SE
Cosmos 1354 Rocket 4.4 17:22:01 10° S 17:27:05 47° ESE 17:32:13 10° NE
NOAA 11 4.2 17:22:20 10° SSE 17:27:48 69° ENE 17:33:17 10° NNW
NOAA 6 4.5 17:23:11 10° S 17:28:18 69° WSW 17:33:29 10° NNW
Cosmos 1300 2.8 17:24:37 10° N 17:28:24 55° ENE 17:32:09 10° SSE
Landsat 5 3.3 17:29:51 10° NNE 17:33:50 64° ESE 17:37:40 10° S
Cosmos 1953 4.3 17:30:33 10° NNW 17:34:08 33° W 17:37:43 10° SSW
Cosmos 1486 Rocket 4.1 17:30:31 10° SSW 17:35:46 86° WNW 17:41:02 10° NNE
ADEOS Rocket 3.6 17:31:42 10° N 17:37:49 57° WNW 17:43:23 10° SW
NOSS 3-1 (C) 4.2 17:31:53 10° NW 17:38:25 47° NNE 17:46:10 10° E
Lacrosse 5 1.8 17:33:31 10° WNW 17:38:37 80° NNE 17:43:41 10° ESE
CREW DRAGON DEMO-1 DEB 3.1 17:36:07 10° W 17:38:59 60° S 17:41:51 10° ESE
ARGOS 4.2 17:36:06 10° ESE 17:40:11 23° NE 17:44:18 10° N
Cosmos 1943 3.7 17:35:00 10° NW 17:40:39 67° WSW 17:46:15 10° SSE
Cosmos 1726 Rocket 3.7 17:37:20 10° N 17:41:36 51° ENE 17:45:53 10° SSE
ERS-2 3.9 17:42:03 13° ENE 17:43:02 14° E 17:45:00 10° ESE
Cosmos 1939 Rocket 3.0 17:42:45 10° SSE 17:46:48 57° ENE 17:50:49 10° N
Meteor 1-24 Rocket 3.7 17:44:01 10° S 17:49:11 53° E 17:54:21 10° NNE
COSMOS 2455 3.8 17:44:37 10° S 17:49:43 29° ESE 17:54:02 13° ENE
Cosmos 1833 Rocket 4.0 17:47:22 10° NNW 17:51:39 22° NNE 17:54:41 15° ENE
Cosmos 1674 4.0 17:49:33 10° SW 17:53:14 43° WNW 17:56:56 10° N
Cosmos 2082 Rocket 3.8 17:49:25 10° NNW 17:53:15 18° NNE 17:55:56 13° NE
Cosmos 1315 Rocket 3.0 17:50:15 10° NNW 17:54:14 76° WSW 17:58:13 10° S
USA 229 DEB 4.2 17:48:39 10° NW 17:55:24 46° NNE 18:01:49 13° E
USA 229 4.2 17:48:45 10° NW 17:55:29 46° NNE 18:01:52 13° E
IRS-1C Rocket 4.2 17:52:43 10° SE 17:57:48 53° ENE 18:02:55 10° N
CZ-4 R/B 2.0 17:55:27 10° SE 17:59:10 34° ENE 18:02:51 10° N
Feng Yun 1-1 Rocket 4.2 17:55:05 10° SSE 18:00:29 71° ENE 18:06:04 10° NNW
COSMO-SKYMED 1 3.2 17:56:42 10° NNE 18:00:45 36° E 18:04:45 10° SSE
NOSS 3-4 (A) 3.8 17:55:19 10° WSW 18:01:15 60° NNW 18:07:06 13° NE
Cosmos 2279 Rocket 4.0 17:55:03 10° N 18:01:22 84° ENE 18:07:38 10° SSE
NOSS 3-4 (C) 3.8 17:55:28 10° WSW 18:01:24 60° NNW 18:07:15 13° NE
Cosmos 1536 Rocket 4.4 17:57:47 10° SSW 18:02:04 51° WNW 18:06:25 10° N
Cosmos 1503 Rocket 4.1 17:58:23 10° SSW 18:03:46 86° WNW 18:09:12 10° NNE
Cosmos 2227 4.2 18:00:54 10° SSW 18:06:33 84° ESE 18:12:17 10° NNE
Cosmos 2227 Rocket 3.8 18:04:54 10° W 18:09:47 29° NW 18:14:42 10° NNE
NOSS 3-1 (A) 4.2 18:04:23 10° NW 18:10:58 48° NNE 18:16:57 17° E
CZ-4B R/B 1.7 18:08:14 13° NNE 18:11:02 45° E 18:14:14 10° S
CZ-4 R/B 4.4 18:08:29 10° SSE 18:12:34 64° ENE 18:16:42 10° N
Cosmos 923 Rocket 4.2 18:09:05 10° NNW 18:14:18 50° ENE 18:19:29 10° SE
H-2A R/B 4.4 18:10:59 10° SSW 18:14:38 32° W 18:18:27 10° NNW
CSL-04 DEB 4.4 18:10:33 10° NNE 18:14:47 64° ESE 18:18:53 10° S
Okean-O 2.8 18:11:04 10° SE 18:15:19 47° ENE 18:19:35 10° N
CZ-2C R/B 3.1 18:11:32 10° SSE 18:16:52 74° ENE 18:22:31 10° NNW
Cosmos 1844 Rocket 3.5 18:12:07 10° SSE 18:16:56 29° ESE 18:19:24 21° ENE
Okean O Rocket 2.9 18:14:02 10° S 18:18:18 45° W 18:22:35 10° NNW
Cosmos 1626 3.3 18:15:15 10° SSW 18:18:48 43° WNW 18:22:21 10° N
ATLAS 2AS CENTAUR R/B 3.3 18:11:03 10° WSW 18:18:58 66° NW 18:25:30 15° NE
SeaSat 1 4.0 18:14:45 10° NNE 18:19:01 30° NW 18:23:17 10° W
H-2A R/B 2.1 18:14:31 10° SE 18:19:20 49° ENE 18:24:18 10° N
Cosmos 158 Rocket 4.1 18:14:30 10° NNW 18:19:45 58° ENE 18:25:03 10° SE
Aureole 2 Rocket 3.6 18:17:45 10° SSE 18:19:28 21° SE 18:19:28 21° SE
Cosmos 1680 Rocket 3.8 18:16:37 10° NNW 18:21:41 45° NE 18:26:36 10° SE
SAR-Lupe-4 4.3 18:31:27 31° ESE 18:31:27 31° ESE 18:34:22 10° SSE
Meteor 2-10 Rocket 3.7 18:25:47 10° NNW 18:31:25 84° WSW 18:36:46 10° S
CZ-2D R/B 3.4 18:28:57 10° S 18:32:48 73° WSW 18:36:40 10° NNW
H-2A R/B 2.9 18:28:56 10° N 18:33:19 54° WNW 18:37:36 10° SW
Cosmos 1818 4.3 18:28:36 10° S 18:33:22 32° ESE 18:34:52 28° E
Cosmos 489 Rocket 4.4 18:27:00 10° NNW 18:33:25 80° ENE 18:39:46 10° SSE
Cosmos 2297 Rocket 4.1 18:30:23 10° WNW 18:34:37 21° NNW 18:38:51 10° NNE
YAOGAN 1 2.4 18:32:55 10° SSE 18:37:13 69° ENE 18:41:33 10° N
Cosmos 1892 Rocket 3.4 18:34:02 10° S 18:38:23 88° E 18:42:45 10° NNE
CSL-04 Rocket 3.7 18:35:58 10° SE 18:41:14 54° ENE 18:46:35 10° N
Helios 1A Rocket 2.9 18:38:01 10° SSE 18:42:07 64° ENE 18:46:15 10° N
Aureole 1 4.0 18:39:51 10° NNW 18:43:01 89° SW 18:44:09 35° SSE
USA 234 3.3 18:40:19 26° E 18:44:15 72° NNE 18:50:48 10° WNW
Iridium 4 Rocket 3.9 18:39:03 10° N 18:44:37 45° ENE 18:49:47 10° SSE
RESURS DK-1 3.7 18:41:07 10° WSW 18:44:57 36° NW 18:47:47 16° NNE
MOS 1 Rocket 2.9 18:40:56 11° NNE 18:45:05 71° ESE 18:49:22 10° S
ATLAS 5 CENTAUR R/B 1.8 18:41:12 10° WSW 18:45:21 67° NW 18:47:37 29° NE
Meteor 2-1 Rocket 4.1 18:40:09 10° NNW 18:45:48 85° ENE 18:51:20 10° SSE
Cosmos 1092 Rocket 4.2 18:41:28 10° SSE 18:47:17 45° E 18:53:05 10° NNE
Cosmos 1812 Rocket 3.7 18:43:22 10° N 18:47:40 46° ENE 18:48:54 36° ESE
SKYMED 2 3.6 18:44:32 10° NNE 18:48:55 84° WNW 18:53:16 10° SSW
Cosmos 2344 4.1 18:42:00 10° NW 18:50:35 71° NE 18:59:35 19° ESE
Aureole 3 3.0 18:51:47 10° NNW 18:55:35 79° W 18:58:45 10° S
SJ 16-02 1.4 18:51:26 10° S 18:55:42 51° ESE 18:55:59 50° E
SJ-11-01 4.2 18:51:41 10° SSE 18:56:23 86° ENE 19:01:07 10° NNW
Cosmos 2112 Rocket 3.9 18:54:00 10° NNW 18:59:17 70° ENE 19:02:18 25° SE
Cosmos 1455 2.4 18:56:01 10° NNW 18:59:48 70° W 19:03:37 10° S
Cosmos 1777 Rocket 4.2 18:57:14 10° SSW 19:02:31 74° WNW 19:06:17 20° NNE
CZ-4C R/B 3.2 18:57:49 10° W 19:03:06 43° NNW 19:06:30 24° NE
Cosmos 2058 Rocket 4.3 18:59:44 10° NNW 19:04:01 44° W 19:08:17 10° SSW
MetOp-A 4.4 19:04:29 42° ENE 19:04:29 42° ENE 19:09:30 10° N
Nadezhda 4 Rocket 3.9 18:58:19 10° S 19:04:34 87° E 19:10:49 10° NNE
Cosmos 2263 Rocket 3.2 19:00:56 10° WSW 19:06:21 44° NW 19:10:38 16° NNE
X-37B 3.5 19:05:20 10° S 19:05:31 10° S 19:05:31 10° S
COSMOS 2406 3.3 19:08:15 10° NNW 19:13:58 56° NE 19:14:49 51° E
ERS-2 2.4 19:16:36 60° NW 19:16:59 65° WNW 19:20:34 10° SSW
ISS -1.4 19:16:49 10° SSW 19:17:58 17° SSW 19:17:58 17° SSW
ARGOS 3.2 19:14:33 10° SSE 19:19:55 80° WSW 19:25:21 10° NNW
Okean 1-7 Rocket 4.2 19:15:49 10° SSW 19:20:18 57° WNW 19:24:35 11° N
PSLV R/B 4.1 19:19:53 45° N 19:21:08 75° WNW 19:25:20 10° SSW
Lacrosse 5 3.1 19:16:42 10° WNW 19:21:20 37° SW 19:24:15 20° SSE
CZ-2C R/B 3.4 19:27:19 39° SSE 19:27:19 39° SSE 19:31:02 10° S
NOSS 3-1 (C) 4.0 19:22:46 10° NW 19:30:00 82° SW 19:34:40 30° SE
CSL-04 Debris 4.4 19:24:53 10° S 19:30:15 67° WSW 19:35:39 10° NNW
Cosmos 1417 Rocket 4.5 19:24:16 10° N 19:30:08 55° ENE 19:30:08 55° ENE
Cosmos 1626 Rocket 3.6 19:26:43 10° SSW 19:31:06 77° WNW 19:31:13 77° WNW
CZ-4 R/B 3.3 19:30:36 10° SSW 19:34:14 30° W 19:37:50 10° NNW
Cosmos 1553 Rocket 3.9 19:28:27 10° N 19:34:53 67° ENE 19:36:14 54° SE
COSMOS 2455 3.0 19:29:11 10° SW 19:35:12 73° NW 19:37:13 44° NNE
Cosmos 1833 Rocket 2.6 19:31:03 10° NNW 19:36:25 65° NE 19:36:25 65° NE
COSMO-SKYMED 1 4.2 19:32:58 10° N 19:36:53 33° WNW 19:40:46 10° SW
Cosmos 1844 3.6 19:32:54 10° SSW 19:38:35 83° ESE 19:39:07 73° NE
Cosmos 2082 Rocket 2.8 19:33:20 10° NNW 19:37:48 41° NNE 19:37:48 41° NNE
Cosmos 2026 Rocket 3.8 19:35:30 10° S 19:41:36 81° E 19:47:51 10° NNE
CZ-4B R/B 4.1 19:41:20 14° NNW 19:42:57 18° WNW 19:45:19 10° WSW
USA 281 3.6 19:43:32 44° NE 19:43:32 44° NE 19:49:12 10° NNW
SL-08 RB Rocket 3.9 19:43:20 65° WSW 19:43:30 66° WSW 19:48:00 10° NNW
USA 229 DEB 3.8 19:39:48 10° NW 19:47:02 84° SW 19:49:17 50° SE
USA 229 3.8 19:39:55 10° NW 19:47:08 85° SW 19:49:20 51° SE
Ariane Rocket 4.1 19:50:14 34° N 19:50:14 34° N 19:53:06 10° NNW
USA 267 4.1 19:51:34 33° SSE 19:51:34 33° SSE 19:55:57 10° SSW
IRS-1A Rocket 4.3 19:52:29 72° NNE 19:52:29 72° NNE 19:57:54 10° NNW
Cosmos 2227 Rocket 4.4 19:52:53 10° NW 19:55:51 14° NNW 19:57:27 13° N
S3M 4.4 19:50:33 10° N 19:54:54 46° NNE 19:54:54 46° NNE
H-2A R/B 3.8 19:54:38 10° SSW 19:59:00 30° W 20:03:31 10° NNW
Cosmos 1844 Rocket 3.0 19:54:51 10° SW 20:00:29 63° NW 20:01:07 59° NNW
NOSS 3-1 (A) 4.0 19:55:19 10° NW 20:02:34 82° SW 20:04:27 58° SSE
ATLAS 2AS CENTAUR R/B 3.8 20:03:53 10° WNW 20:11:15 40° N 20:12:56 36° NNE
Cosmos 2098 Rocket 4.4 20:07:14 10° SSW 20:14:28 79° WNW 20:21:56 10° N
Cosmos 1818 4.2 20:11:14 10° WSW 20:15:33 52° W 20:15:33 52° W
Cosmos 2297 Rocket 4.5 20:18:24 10° NNW 20:20:59 13° N 20:21:10 13° N
USA 234 3.4 20:27:40 68° SW 20:27:40 68° SW 20:33:56 10° WNW
ATLAS 5 CENTAUR R/B 3.8 20:26:52 10° WNW 20:29:10 23° NW 20:29:10 23° NW
SJ 16-02 3.7 20:30:48 10° WSW 20:33:02 22° W 20:33:02 22° W
Cosmos 2263 Rocket 4.4 20:48:06 10° WNW 20:51:48 17° NNW 20:52:21 17° NNW
CZ-4C R/B 3.9 20:47:31 10° WNW 20:51:41 32° NNW 20:51:41 32° NNW
Cosmos 2082 Rocket 4.3 21:17:34 10° NW 21:19:40 22° NW 21:19:40 22° NW
ATLAS 2AS CENTAUR R/B 4.5 21:56:33 10° NW 22:00:23 28° NW 22:00:23 28° NW
